Change the Weather History Date:

Monday, December 3, 2012

  Actual Average (KFLP) Record (KFLP)
Temperature  
Mean Temperature 64 °F -  
Max Temperature 73 °F 52 °F 75 °F (2012)
Min Temperature 55 °F 33 °F 19 °F (2000)
Degree Days  
Heating Degree Days 1    
Growing Degree Days 14 (Base 50)    
Moisture  
Dew Point 60 °F    
Average Humidity 82    
Maximum Humidity 100    
Minimum Humidity 64    
Precipitation  
Precipitation 0.00 in - - ()
Sea Level Pressure  
Sea Level Pressure 30.04 in    
Wind  
Wind Speed 3 mph (South)    
Max Wind Speed 16 mph    
Max Gust Speed 26 mph    
Visibility 8 miles    
Events      
Averages and records for this station are not official NWS values.
T = Trace of Precipitation, MM = Missing Value Source: NWS Daily Summary

Daily Weather History Graph

Daily Weather History Graph

Search for Another Location

Airport or City:

Trip Planner

Search our weather history database for the weather conditions in past years. The results will help you decide how hot, cold, wet, or windy it might be!

Date:

Astronomy

Dec. 03, 2012 Rise Set
Actual Time 7:03 AM CST 4:56 PM CST
Civil Twilight 6:35 AM CST 5:24 PM CST
Nautical Twilight 6:03 AM CST 5:56 PM CST
Astronomical Twilight 5:32 AM CST 6:27 PM CST
Moon 9:38 PM CST (12/3) 10:31 AM CST (12/3)
Length of Visible Light 10h 49m
Length of Day
9h 53m
Waning Gibbous, 78% of the Moon is Illuminated
Dec 3
Waning Gibbous
Dec 6
Last Quarter
Dec 13
New
Dec 19
First Quarter
Dec 28
Full

Hourly Weather History & Observations

Time (CST) Temp. Dew Point Humidity Pressure Visibility Wind Dir Wind Speed Gust Speed Precip Events Conditions
12:15 AM 60.8 °F 59.0 °F 94% 30.08 in 7.0 mi Calm Calm - N/A   Clear
12:35 AM 59.0 °F 57.2 °F 94% 30.08 in 5.0 mi Calm Calm - N/A   Clear
12:55 AM 57.2 °F 55.4 °F 94% 30.08 in 3.0 mi Calm Calm - N/A   Clear
1:15 AM 57.2 °F 55.4 °F 94% 30.08 in 3.0 mi Calm Calm - N/A   Clear
1:35 AM 55.4 °F 55.4 °F 100% 30.08 in 3.0 mi Calm Calm - N/A   Scattered Clouds
1:55 AM 55.4 °F 55.4 °F 100% 30.08 in 4.0 mi Calm Calm - N/A   Overcast
2:15 AM 55.4 °F 55.4 °F 100% 30.08 in 5.0 mi Calm Calm - N/A   Mostly Cloudy
2:35 AM 57.2 °F 55.4 °F 94% 30.07 in 5.0 mi Calm Calm - N/A   Mostly Cloudy
2:55 AM 57.2 °F 55.4 °F 94% 30.07 in 4.0 mi Calm Calm - N/A   Mostly Cloudy
3:15 AM 57.2 °F 57.2 °F 100% 30.07 in 3.0 mi Calm Calm - N/A   Mostly Cloudy
3:35 AM 57.2 °F 57.2 °F 100% 30.07 in 3.0 mi Calm Calm - N/A   Overcast
3:55 AM 57.2 °F 57.2 °F 100% 30.07 in 4.0 mi Calm Calm - N/A   Overcast
4:15 AM 57.2 °F 55.4 °F 94% 30.06 in 3.0 mi Calm Calm - N/A   Overcast
4:35 AM 55.4 °F 55.4 °F 100% 30.06 in 3.0 mi Calm Calm - N/A   Overcast
4:55 AM 60.8 °F 60.8 °F 100% 30.06 in 6.0 mi Calm Calm - N/A   Overcast
5:15 AM 60.8 °F 60.8 °F 100% 30.06 in 6.0 mi Calm Calm - N/A   Overcast
5:35 AM 62.6 °F 60.8 °F 94% 30.06 in 8.0 mi SSE 3.5 mph - N/A   Overcast
5:55 AM 62.6 °F 60.8 °F 94% 30.06 in 8.0 mi SSE 3.5 mph - N/A   Mostly Cloudy
6:15 AM 62.6 °F 60.8 °F 94% 30.06 in 8.0 mi SSE 3.5 mph - N/A   Mostly Cloudy
6:35 AM 62.6 °F 60.8 °F 94% 30.07 in 9.0 mi Calm Calm - N/A   Mostly Cloudy
6:55 AM 62.6 °F 60.8 °F 94% 30.07 in 8.0 mi Calm Calm - N/A   Overcast
7:15 AM 62.6 °F 60.8 °F 94% 30.07 in 9.0 mi Calm Calm - N/A   Overcast
7:35 AM 62.6 °F 60.8 °F 94% 30.07 in 9.0 mi Calm Calm - N/A   Overcast
7:55 AM 62.6 °F 60.8 °F 94% 30.07 in 10.0 mi SSE 5.8 mph - N/A   Overcast
8:55 AM 64.4 °F 60.8 °F 88% 30.08 in 8.0 mi South 6.9 mph - N/A   Mostly Cloudy
9:15 AM 64.4 °F 62.6 °F 94% 30.09 in 8.0 mi South 6.9 mph - N/A   Mostly Cloudy
9:35 AM 64.4 °F 62.6 °F 94% 30.09 in 9.0 mi South 8.1 mph - N/A   Overcast
9:55 AM 66.2 °F 62.6 °F 88% 30.09 in 9.0 mi South 4.6 mph - N/A   Overcast
10:15 AM 66.2 °F 62.6 °F 88% 30.08 in 10.0 mi Calm Calm - N/A   Overcast
10:35 AM 68.0 °F 60.8 °F 78% 30.08 in 10.0 mi Calm Calm - N/A   Overcast
10:55 AM 68.0 °F 60.8 °F 78% 30.07 in 10.0 mi South 9.2 mph - N/A   Overcast
11:15 AM 69.8 °F 62.6 °F 78% 30.07 in 10.0 mi SSW 12.7 mph 17.3 mph N/A   Mostly Cloudy
11:35 AM 71.6 °F 60.8 °F 69% 30.06 in 10.0 mi SSW 11.5 mph 21.9 mph N/A   Mostly Cloudy
11:55 AM 71.6 °F 60.8 °F 69% 30.05 in 10.0 mi South 15.0 mph 24.2 mph N/A   Scattered Clouds
12:15 PM 71.6 °F 60.8 °F 69% 30.04 in 10.0 mi South 10.4 mph 21.9 mph N/A   Partly Cloudy
12:35 PM 73.4 °F 60.8 °F 65% 30.03 in 10.0 mi South 13.8 mph 24.2 mph N/A   Partly Cloudy
12:55 PM 73.4 °F 60.8 °F 65% 30.01 in 10.0 mi South 15.0 mph 26.5 mph N/A   Partly Cloudy
1:15 PM 73.4 °F 60.8 °F 65% 30.00 in 10.0 mi South 10.4 mph 18.4 mph N/A   Scattered Clouds
1:35 PM 73.4 °F 62.6 °F 69% 29.99 in 10.0 mi South 10.4 mph 17.3 mph N/A   Scattered Clouds
1:55 PM 73.4 °F 62.6 °F 69% 29.99 in 10.0 mi South 16.1 mph 19.6 mph N/A   Scattered Clouds
2:15 PM 73.4 °F 62.6 °F 69% 29.98 in 10.0 mi South 10.4 mph 20.7 mph N/A   Scattered Clouds
2:35 PM 73.4 °F 60.8 °F 65% 29.98 in 10.0 mi South 10.4 mph 20.7 mph N/A   Scattered Clouds
2:55 PM 73.4 °F 60.8 °F 65% 29.98 in 10.0 mi South 10.4 mph 20.7 mph N/A   Partly Cloudy
3:15 PM 73.4 °F 60.8 °F 65% 29.98 in 10.0 mi South 15.0 mph 18.4 mph N/A   Clear
3:35 PM 73.4 °F 60.8 °F 65% 29.97 in 10.0 mi South 9.2 mph 20.7 mph N/A   Clear
3:55 PM 73.4 °F 60.8 °F 65% 29.97 in 10.0 mi SE 12.7 mph - N/A   Clear
4:15 PM 73.4 °F 60.8 °F 65% 29.97 in 10.0 mi South 6.9 mph 18.4 mph N/A   Partly Cloudy
4:35 PM 71.6 °F 60.8 °F 69% 29.97 in 10.0 mi SSE 6.9 mph - N/A   Scattered Clouds
4:55 PM 71.6 °F 60.8 °F 69% 29.97 in 10.0 mi Calm Calm - N/A   Scattered Clouds
5:15 PM 71.6 °F 60.8 °F 69% 29.97 in 10.0 mi SSE 3.5 mph - N/A   Partly Cloudy
5:35 PM 71.6 °F 60.8 °F 69% 29.98 in 10.0 mi SSE 6.9 mph - N/A   Mostly Cloudy
6:15 PM 71.6 °F 59.0 °F 64% 29.99 in 10.0 mi SSE 9.2 mph 18.4 mph N/A   Overcast
6:35 PM 69.8 °F 60.8 °F 73% 29.99 in 10.0 mi SSE 6.9 mph - N/A   Mostly Cloudy
6:55 PM 69.8 °F 60.8 °F 73% 30.00 in 10.0 mi SSE 5.8 mph - N/A   Mostly Cloudy
7:15 PM 69.8 °F 60.8 °F 73% 30.00 in 10.0 mi South 9.2 mph - N/A   Mostly Cloudy
7:35 PM 69.8 °F 60.8 °F 73% 30.01 in 10.0 mi South 5.8 mph - N/A   Mostly Cloudy
8:15 PM 69.8 °F 60.8 °F 73% 30.01 in 10.0 mi South 8.1 mph - N/A   Mostly Cloudy
8:35 PM 69.8 °F 60.8 °F 73% 30.02 in 10.0 mi South 4.6 mph - N/A   Mostly Cloudy
8:55 PM 68.0 °F 60.8 °F 78% 30.01 in 10.0 mi South 4.6 mph - N/A   Partly Cloudy
9:15 PM 68.0 °F 60.8 °F 78% 30.02 in 10.0 mi South 6.9 mph - N/A   Clear
9:35 PM 66.2 °F 60.8 °F 83% 30.03 in 10.0 mi South 9.2 mph - N/A   Partly Cloudy
9:55 PM 68.0 °F 60.8 °F 78% 30.04 in 10.0 mi Calm Calm - N/A   Mostly Cloudy
10:15 PM 68.0 °F 62.6 °F 83% 30.04 in 10.0 mi SSW 5.8 mph - N/A   Mostly Cloudy
10:35 PM 68.0 °F 62.6 °F 83% 30.04 in 10.0 mi Calm Calm - N/A   Mostly Cloudy
10:55 PM 68.0 °F 62.6 °F 83% 30.04 in 10.0 mi Calm Calm - N/A   Overcast
11:15 PM 66.2 °F 62.6 °F 88% 30.03 in 10.0 mi Calm Calm - N/A   Mostly Cloudy
11:35 PM 66.2 °F 62.6 °F 88% 30.02 in 10.0 mi Calm Calm - N/A   Mostly Cloudy
11:55 PM 64.4 °F 62.6 °F 94% 30.02 in 10.0 mi Calm Calm - N/A   Scattered Clouds